Showing default

POEM 4, 62461

Orbit data source: Space-Track

POEM 4, 62461 is a payload satellite owned by ISRO (IN) in LEO that was launched on Mon, 30 Dec 2024 UTC via a PSLV launch vehicle from the Sirharikota (SRI). Payloads include a variety of satellites, spacecraft, and rockets equipped with specific instruments for various scientific and technological missions. These include communications satellites like Starlink; space stations such as the ISS; scientific satellites like the Hubble; Earth observation satellites from companies like Planet Labs, Umbra, and HawkEye 360; GPS; miniature CubeSats for education and research; and military/defense satellites.

Loading next visibility...
POEM 4 details
Identifier
62461, 2024-253C
Orbit
LEO
Last TLE update14 hours ago
Origin
Flag of INISRO (IN / IND)
ManufacturerISRO SAC/Banga
MissionOperational Civil Technology
Bus & MotorPOEM, Unknown motor
Mass50 kg wet, ~50 kg dry
Launch date (UTC)
2024-12-30 (2 months ago)
Launch vehicle
PSLV
Launch site
Sirharikota (SRI)
Object type
Payload
Rocket body
Debris
Shape & HBRBox, 0.5 m
Radar Cross Section0.195 m², Large (>1 m²)

Expand to show TLE details & history

TLE from 14 hours ago
0 POEM 4
1 62461U 24253C   25046.89701571  .00190951  00000-0  86852-3 0  9997
2 62461  55.2198  30.6368 0012474  57.0238 303.2010 15.82744847  7444
Epoch: 2025-02-15T21:31Z
Definitive object data (Epoch: 2025-02-15T21:31:42.157Z)
Latitude
Longitude-78.42669°
Altitude319.257 km
Speed7.72 km/s
True Right ascension02h 02m 32s
True Declination0° 00' 00"
Sunlit
Object was in daylight at TLE epoch
Visualization TLE readout
Latitude48.55974°
Longitude-29.73652°
Altitude319.516 km
Speed7.727 km/s
Apparent Right ascension03h 40m 21s
Apparent Declination6° 09' 17"
Sunlit
Object is in full shadow
Visualization observer readout
Local Sidereal Time14:12:58
Azimuth331.249° NNW
Elevation-39.717°
Doppler factor1
Orbital elements
Apogee altitude330.967 km
Perigee altitude314.25 km
Semi-major axis6,700.745 km
Eccentricity0.0012474
Inclination55.2198°
RAAN30.6368°
Arg. of periapsis57.0238°
True anomaly303.08129°
Mean anomaly303.201°
Eccentric anomaly303.14116°
Mean motion3.95693 °/min
BSTAR0.00086852
Orbital period90.98 mins
Loading maneuver chart data...
Loading historical data...
Loading historical data...
Loading historical data...
Loading historical data...
Loading historical data...
Loading historical data...
Loading historical data...
Other satellites on launch #253 in the year 2024 (2024-12-30 UTC)

POEM 4 Visibility forecast

Observer location: undefined°, undefined

Span
Click to sort rows by Start time (UTC) header in descending order
Start Az.
Max El. time (UTC)
Max El. Az.
Max El.
End time (UTC)
End Az.
4 mins2025-02-17 00:58:36.486Z212.617° SW2025-02-17 01:00:36.486Z163.494° S38.888°2025-02-17 01:02:36.486Z58.263° ENE
|